speedpay.com alexa rank chart, speedpay.com alexa rank daily changes

speedpay.com alexa rank chart, speedpay.com alexa rank daily changes

speedpay.com
Actual rank:
10 554

RANK HISTORY

Date Rank Diff
2017/05/27 10 554 -2
2017/05/26 10 556 -36
2017/05/25 10 592 -86
2017/05/24 10 678 +20
2017/05/23 10 658 +121
2017/05/22 10 537 -18
2017/05/21 10 555 -129
2017/05/20 10 684 +63
2017/05/19 10 621 -26
2017/05/18 10 647 -41
2017/05/17 10 688 -47
2017/05/16 10 735 +269
2017/05/15 10 466 +2
2017/05/14 10 464 -124
2017/05/13 10 588 +55
2017/05/12 10 533 +43
2017/05/11 10 490 -14
2017/05/10 10 504 +4
2017/05/09 10 500 +157
2017/05/08 10 343 -9
2017/05/07 10 352 -54
2017/05/06 10 406 +49
2017/05/05 10 357 +106
2017/05/04 10 251 -28
2017/05/03 10 279 +28
2017/05/02 10 251 +168
2017/05/01 10 083 -122
2017/04/30 10 205 -172
2017/04/29 10 377 +2
2017/04/28 10 375 -9
2017/04/27 10 384 -1
2017/04/26 10 385 +124
2017/04/25 10 261 +84
2017/04/24 10 177 +13
2017/04/23 10 164 +14
2017/04/21 10 150 -81
2017/04/20 10 231 +12
2017/04/19 10 219 +91
2017/04/18 10 128 +130
2017/04/17 9 998 +76
2017/04/16 9 922 -234
2017/04/15 10 156 -14
2017/04/14 10 170 -33
2017/04/12 10 203 +81
2017/04/11 10 122 +20
2017/04/10 10 102 -47
2017/04/09 10 149 -92
2017/04/08 10 241 +7
2017/04/07 10 234 -60
2017/04/06 10 294 -1
2017/04/05 10 295 +38
2017/04/04 10 257 +51
2017/04/03 10 206 +27
2017/04/02 10 179 +43
2017/04/01 10 136 +28
2017/03/31 10 108 +87
2017/03/30 10 021 +70
2017/03/29 9 951 +40
2017/03/28 9 911

WIDGET FOR YOUR SITE

DOMAINS WITH THE NEAREST RANK

Domain Rank
linkshare.com 10 549
piraeuspress.gr 10 550
7sur7.be 10 551
twoplayergames.org 10 552
bit.ly 10 553
speedpay.com 10 554
indianrailways.gov.in 10 555
cdbaby.com 10 556
nielsen.com 10 557
rtl.hr 10 558
ezprice.com.tw 10 559

DOMAINS WITH THE NEAREST RANK BY TLD .com

Domain Rank
okcaller.com 10 539
ebcbuzz.com 10 541
wwwpromoter.com 10 542
xxxtubedot.com 10 545
linkshare.com 10 549
speedpay.com 10 554
cdbaby.com 10 556
nielsen.com 10 557
typing.com 10 561
savebt.com 10 562
bestbestworld.com 10 563